Hourly Weather Zadzim

Today, 15 July, Wednesday

Time Temperature Precipitation Wind Pressure Humidity
00:00 +16°C° 0 mm 2 mps 748 mmHg 72%
01:00 +16°C° 0 mm 3 mps 748 mmHg 69%
02:00 +14°C° 0 mm 3 mps 747 mmHg 72%
03:00 +14°C° 0 mm 3 mps 747 mmHg 75%
04:00 +13°C° 0 mm 3 mps 747 mmHg 77%
05:00 +16°C° 0 mm 3 mps 747 mmHg 75%
06:00 +17°C° 0 mm 3 mps 747 mmHg 73%
07:00 +19°C° 0 mm 3 mps 747 mmHg 70%
08:00 +20°C° 0 mm 4 mps 747 mmHg 65%
09:00 +22°C° 0 mm 4 mps 746 mmHg 59%
10:00 +23°C° 0 mm 4 mps 746 mmHg 54%
11:00 +25°C° 0 mm 4 mps 746 mmHg 52%
12:00 +26°C° 0 mm 4 mps 746 mmHg 50%
13:00 +26°C° 0 mm 4 mps 746 mmHg 48%
14:00 +26°C° 0 mm 4 mps 745 mmHg 49%
15:00 +26°C° 0 mm 4 mps 745 mmHg 50%
16:00 +26°C° 0 mm 4 mps 745 mmHg 52%
17:00 +24°C° 0 mm 3 mps 745 mmHg 57%
18:00 +23°C° 0 mm 2 mps 745 mmHg 62%
19:00 +21°C° 0 mm 2 mps 745 mmHg 67%
20:00 +20°C° 0 mm 2 mps 745 mmHg 70%
21:00 +19°C° 0 mm 3 mps 745 mmHg 72%
22:00 +18°C° 0 mm 3 mps 745 mmHg 75%
23:00 +17°C° 0 mm 3 mps 745 mmHg 80%

Tomorrow, 16 July, Thursday

Time Temperature Precipitation Wind Pressure Humidity
00:00 +17°C° 0 mm 3 mps 745 mmHg 85%
01:00 +16°C° 0 mm 3 mps 745 mmHg 90%
02:00 +16°C° 0.1 mm 3 mps 745 mmHg 91%
03:00 +16°C° 0.1 mm 2 mps 745 mmHg 92%
04:00 +16°C° 0.1 mm 2 mps 744 mmHg 94%
05:00 +16°C° 0.5 mm 3 mps 745 mmHg 93%
06:00 +15°C° 0.5 mm 4 mps 745 mmHg 93%
07:00 +14°C° 0.5 mm 6 mps 745 mmHg 92%
08:00 +15°C° 0.9 mm 5 mps 745 mmHg 90%
09:00 +15°C° 0.9 mm 5 mps 746 mmHg 88%
10:00 +15°C° 0.9 mm 4 mps 746 mmHg 85%
11:00 +18°C° 0.6 mm 4 mps 746 mmHg 80%
12:00 +19°C° 0.6 mm 4 mps 746 mmHg 75%
13:00 +20°C° 0.6 mm 4 mps 746 mmHg 70%
14:00 +20°C° 0.5 mm 4 mps 746 mmHg 68%
15:00 +21°C° 0.5 mm 4 mps 746 mmHg 67%
16:00 +21°C° 0.5 mm 4 mps 746 mmHg 66%
17:00 +20°C° 0.6 mm 3 mps 746 mmHg 71%
18:00 +19°C° 0.6 mm 3 mps 746 mmHg 75%
19:00 +18°C° 0.6 mm 2 mps 746 mmHg 80%
20:00 +17°C° 0 mm 2 mps 746 mmHg 83%
21:00 +16°C° 0 mm 2 mps 746 mmHg 87%
22:00 +15°C° 0 mm 2 mps 747 mmHg 90%
23:00 +14°C° 0 mm 2 mps 747 mmHg 91%

Day after tomorrow, 17 July, Friday

Time Temperature Precipitation Wind Pressure Humidity
00:00 +14°C° 0 mm 2 mps 747 mmHg 92%
01:00 +14°C° 0 mm 2 mps 747 mmHg 93%
02:00 +13°C° 0 mm 2 mps 747 mmHg 94%
03:00 +13°C° 0 mm 2 mps 747 mmHg 95%
04:00 +13°C° 0 mm 2 mps 747 mmHg 96%
05:00 +14°C° 0 mm 2 mps 747 mmHg 91%
06:00 +15°C° 0 mm 2 mps 748 mmHg 87%
07:00 +17°C° 0 mm 2 mps 748 mmHg 83%
08:00 +18°C° 0 mm 2 mps 748 mmHg 76%
09:00 +19°C° 0 mm 2 mps 748 mmHg 70%
10:00 +20°C° 0 mm 2 mps 748 mmHg 63%
11:00 +20°C° 0 mm 2 mps 748 mmHg 60%
12:00 +21°C° 0 mm 2 mps 748 mmHg 57%
13:00 +23°C° 0 mm 2 mps 748 mmHg 54%
14:00 +23°C° 0 mm 2 mps 748 mmHg 54%
15:00 +23°C° 0 mm 2 mps 748 mmHg 55%
16:00 +23°C° 0 mm 2 mps 748 mmHg 55%
17:00 +21°C° 0 mm 2 mps 748 mmHg 60%
18:00 +20°C° 0 mm 2 mps 748 mmHg 66%
19:00 +19°C° 0 mm 2 mps 748 mmHg 71%
20:00 +18°C° 0 mm 2 mps 748 mmHg 73%
21:00 +18°C° 0 mm 2 mps 748 mmHg 75%
22:00 +17°C° 0 mm 2 mps 748 mmHg 77%
23:00 +16°C° 0 mm 2 mps 748 mmHg 79%

18 July, Saturday

Time Temperature Precipitation Wind Pressure Humidity
00:00 +16°C° 0 mm 2 mps 748 mmHg 81%
01:00 +16°C° 0 mm 3 mps 748 mmHg 83%
02:00 +14°C° 0 mm 3 mps 748 mmHg 85%
03:00 +14°C° 0 mm 3 mps 748 mmHg 87%
04:00 +14°C° 0 mm 3 mps 748 mmHg 90%
05:00 +16°C° 0 mm 3 mps 748 mmHg 88%
06:00 +16°C° 0 mm 3 mps 748 mmHg 87%
07:00 +17°C° 0 mm 3 mps 748 mmHg 85%
08:00 +18°C° 0 mm 3 mps 748 mmHg 81%
09:00 +20°C° 0 mm 3 mps 748 mmHg 78%
10:00 +21°C° 0 mm 3 mps 748 mmHg 74%
11:00 +22°C° 0.1 mm 3 mps 748 mmHg 69%
12:00 +24°C° 0.1 mm 2 mps 748 mmHg 64%
13:00 +25°C° 0.1 mm 2 mps 748 mmHg 59%
14:00 +25°C° 0.7 mm 3 mps 748 mmHg 62%
15:00 +25°C° 0.7 mm 3 mps 748 mmHg 64%
16:00 +25°C° 0.7 mm 3 mps 748 mmHg 67%
17:00 +24°C° 0.3 mm 3 mps 748 mmHg 70%
18:00 +23°C° 0.3 mm 2 mps 748 mmHg 74%
19:00 +21°C° 0.3 mm 2 mps 748 mmHg 78%
20:00 +20°C° 0.1 mm 2 mps 748 mmHg 79%
21:00 +19°C° 0.1 mm 2 mps 748 mmHg 81%
22:00 +19°C° 0.1 mm 2 mps 748 mmHg 82%
23:00 +19°C° 0 mm 1 mps 748 mmHg 82%

19 July, Sunday

Time Temperature Precipitation Wind Pressure Humidity
00:00 +19°C° 0 mm 1 mps 748 mmHg 83%
01:00 +19°C° 0 mm 1 mps 748 mmHg 83%
02:00 +19°C° 0 mm 1 mps 748 mmHg 84%
03:00 +19°C° 0 mm 1 mps 748 mmHg 85%
04:00 +19°C° 0 mm 1 mps 748 mmHg 85%
05:00 +20°C° 0 mm 1 mps 748 mmHg 84%
06:00 +20°C° 0 mm 1 mps 748 mmHg 83%
07:00 +21°C° 0 mm 1 mps 748 mmHg 82%
08:00 +22°C° 0.2 mm 1 mps 748 mmHg 77%
09:00 +24°C° 0.2 mm 1 mps 748 mmHg 72%
10:00 +23°C° 0.2 mm 0 mps 748 mmHg 66%
11:00 +26°C° 0.9 mm 1 mps 747 mmHg 63%
12:00 +27°C° 0.9 mm 1 mps 747 mmHg 60%
13:00 +28°C° 0.9 mm 1 mps 747 mmHg 57%
14:00 +28°C° 0.5 mm 1 mps 747 mmHg 58%
15:00 +28°C° 0.5 mm 1 mps 747 mmHg 58%
16:00 +28°C° 0.5 mm 2 mps 746 mmHg 58%
17:00 +27°C° 0.1 mm 1 mps 746 mmHg 64%
18:00 +26°C° 0.1 mm 1 mps 746 mmHg 69%
19:00 +25°C° 0.1 mm 1 mps 746 mmHg 74%
20:00 +24°C° 0.1 mm 1 mps 746 mmHg 76%
21:00 +23°C° 0.1 mm 1 mps 746 mmHg 78%
22:00 +22°C° 0.1 mm 1 mps 746 mmHg 80%
23:00 +21°C° 0.1 mm 1 mps 746 mmHg 82%

20 July, Monday

Time Temperature Precipitation Wind Pressure Humidity
00:00 +21°C° 0.1 mm 1 mps 746 mmHg 83%
01:00 +20°C° 0.1 mm 2 mps 746 mmHg 85%
02:00 +19°C° 0.1 mm 2 mps 746 mmHg 87%
03:00 +19°C° 0.1 mm 2 mps 746 mmHg 89%
04:00 +18°C° 0.1 mm 2 mps 746 mmHg 90%
05:00 +19°C° 0 mm 2 mps 746 mmHg 88%
06:00 +21°C° 0 mm 3 mps 746 mmHg 85%
07:00 +22°C° 0 mm 3 mps 746 mmHg 82%
08:00 +23°C° 0.8 mm 4 mps 746 mmHg 76%
09:00 +25°C° 0.8 mm 4 mps 746 mmHg 71%
10:00 +26°C° 0.8 mm 5 mps 745 mmHg 65%
11:00 +27°C° 0.1 mm 5 mps 745 mmHg 62%
12:00 +27°C° 0.1 mm 5 mps 745 mmHg 58%
13:00 +28°C° 0.1 mm 6 mps 745 mmHg 55%
14:00 +27°C° 0.2 mm 6 mps 745 mmHg 56%
15:00 +27°C° 0.2 mm 5 mps 745 mmHg 58%
16:00 +27°C° 0.2 mm 5 mps 745 mmHg 60%
17:00 +25°C° 0.9 mm 5 mps 746 mmHg 69%
18:00 +22°C° 0.9 mm 5 mps 746 mmHg 78%
19:00 +20°C° 0.9 mm 5 mps 746 mmHg 87%
20:00 +19°C° 0.2 mm 5 mps 747 mmHg 89%
21:00 +17°C° 0.2 mm 6 mps 747 mmHg 90%
22:00 +16°C° 0.2 mm 6 mps 748 mmHg 91%
23:00 +15°C° 0 mm 5 mps 748 mmHg 90%
Show more